SCP
0 0 0 0 0 0 0 0 0 0 0 0 0 0 0 0 0 0 0 0 0 0 0 0 0 0 0 0 0 0 0 0 0 0 0 0 0 0 0 0 0 0 0
0 0 0 0 0 0 0 0 0 0 0 0 0 0 0 0 0 0 0 0 0 0 0 0 0 0 0 0 0 0 0 0 0 0 0 0 0 0 0 0 0 0 0
0 0 0 0 0 0 0 0 0 0 0 0 0 0 0 0 0 0 0 0 0 0 0 0 0 0 0 0 0 0 0 0 0 0 0 0 0 0 0 0 0 0 0
0 0 0 0 0 0 0 0 0 0 0 0 0 0 0 0 0 0 0 0 0 0 0 0 0 0 0 0 0 0 0 0 0 0 0 0 0 0 0 0 0 0 0
0 0 0 0 0 0 0 0 0 0 0 0 0 0 0 0 0 0 0 0 0 0 0 0 0 0 0 0 0 0 0 0 0 0 0 0 0 0 0 0 0 0 0
0 0 0 0 0 0 0 0 0 0 0 0 0 0 0 0 0 0 0 0 0 0 0 0 0 0 0 0 0 0 0 0 0 0 0 0 0 0 0 0 0 0 0
0 0 0 0 0 0 0 0 0 0 0 0 0 0 0 0 0 0 0 0 0 0 0 0 0 0 0 0 0 0 0 0 0 0 0 0 0 0 0 0 0 0 0
0 0 0 0 0 0 0 0 0 0 0 0 0 0 0 0 0 0 0 0 0 0 0 0 0 0 0 0 0 0 0 0 0 0 0 0 0 0 0 0 0 0 0
0 0 0 0 0 0 0 0 0 0 0 0 0 0 0 0 0 0 0 0 0 0 0 0 0 0 0 0 0 0 0 0 0 0 0 0 0 0 0 0 0 0 0
0 0 0 0 0 0 0 0 0 0 0 0 0 0 0 0 0 0 0 0 0 0 0 0 0 0 0 0 0 0 0 0 0 0 0 0 0 0 0 0 0 0 0
0 0 0 0 0 0 0 0 0 0 0 0 0 0 0 0 0 0 0 0 0 0 0 0 0 0 0 0 0 0 0 0 0 0 0 0 0 0 0 0 0 0 0
0 0 0 0 0 0 0 0 0 0 0 0 0 0 0 0 0 0 0 0 0 0 0 0 0 0 0 0 0 0 0 0 0 0 0 0 0 0 0 0 0 0 0
0 0 0 0 0 0 0 0 0 0 0 0 0 0 0 0 0 0 0 0 0 0 0 0 0 0 0 0 0 0 0 0 0 0 0 0 0 0 0 0 0 0 0
0 0 0 0 0 0 0 0 0 0 0 0 0 0 0 0 0 0 0 0 0 0 0 0 0 0 0 0 0 0 0 0 0 0 0 0 0 0 0 0 0 0 0
0 0 0 0 0 0 0 0 0 0 0 0 0 0 0 0 0 0 0 0 0 0 0 0 0 0 0 0 0 0 0 0 0 0 0 0 0 0 0 0 0 0 0
0 0 0 0 0 0 0 0 0 0 0 0 0 0 0 0 0 0 -0 -0 -0 -0 0 0 0 0 0 0 0 0 0 0 0 0 0 0 0 0 0 0 0 0 0
0 0 0 0 0 0 0 0 0 0 0 -0 -0 -0 -0 -0 -0 -0 -0 -0 -0 -0 -0 -0 0 0 0 0 0 0 0 0 0 0 0 0 0 0 0 0 0 0 0
0 0 0 0 0 0 0 0 0 0 0 -0 -0 -0 -0 -0 -0 -0 -0 -0 -0 -0 -0 -0 -0 -0 0 0 0 0 0 0 0 0 0 0 0 0 0 0 0 0 0
0 0 0 0 0 0 0 0 0 0 -0 -0 0 0 -0 -0 -0 -0 -0 -0 -0 -0 -0 -0 -0 0 0 0 -0 -0 0 0 0 0 0 0 0 0 0 0 0 0 0
0 0 0 0 0 0 0 0 0 -0 0 0 0 0 0 0 0 0 0 -0 0 -0 -0 0 -0 -0 0 -0 -0 -0 0 0 0 0 0 0 0 0 0 0 0 0 0
0 0 0 0 0 0 0 0 0 0 0 0 0 0 0 0 0 0 0 0 0 -0 -0 -0 -0 -0 -0 -0 -0 -0 0 0 0 0 0 0 0 0 0 0 0 0 0
0 0 0 0 0 0 0 0 0 0 0 0 0 0 0 0 0 0 -0 -0 -0 -0 -0 -0 -0 -0 -0 -0 0 0 0 0 0 0 0 0 0 0 0 0 0 0 0
0 0 0 0 0 0 0 0 0 0 0 0 0 0 0 0 0 -0 -0 -0 -0 -0 -0 -0 -0 -0 -0 -0 0 0 0 0 0 0 0 0 0 0 0 0 0 0 0
0 0 0 0 0 0 0 0 0 0 0 0 0 0 -0 0 -0 -0 -0 -0 -0 -0 -0 -0 -0 -0 -0 0 0 0 0 0 0 0 0 0 0 0 0 0 0 0 0
0 0 0 0 0 0 0 0 0 -0 -0 -0 -0 -0 -0 -0 -0 -0 -0 -0 -0 -0 -0 -0 -0 -0 0 0 0 0 0 0 0 0 0 0 0 0 0 0 0 0 0
0 0 0 0 0 0 0 -0 -0 -0 -0 -0 -0 -0 -0 0 -0 -0 0 -0 -0 -0 -0 -0 -0 0 -0 0 0 0 0 0 0 0 0 0 0 0 0 0 0 0 0
Wind_Speed_500mb
61 52 48 50 48 47 49 54 54 58 65 71 72 72 67 64 65 65 62 60 59 59 60 60 57 52 55 57 56 57 60 61 56 59 65 64 63 62 59 54 52 49 49
56 59 57 50 51 53 60 62 60 53 60 70 73 72 72 65 63 64 65 64 64 64 63 65 66 61 59 61 61 59 65 65 61 60 65 65 66 61 48 45 42 35 31
53 49 46 49 55 65 63 62 64 58 51 58 70 75 77 75 67 66 67 65 65 68 69 69 69 68 67 69 69 65 65 70 69 66 59 27 22 32 33 30 35 38 41
52 51 53 55 52 54 56 60 60 59 53 52 63 72 77 74 65 61 54 59 63 65 67 70 73 74 76 75 76 74 72 70 75 77 76 76 79 65 56 41 31 35 48
35 36 31 33 40 39 47 48 51 56 51 53 52 63 72 70 72 72 69 62 56 55 57 59 63 69 74 77 82 85 82 80 80 82 82 81 80 81 85 83 79 68 59
14 8 2 7 17 27 31 30 34 39 45 46 47 53 63 67 72 71 71 70 64 59 52 52 56 59 65 70 74 80 86 86 88 88 88 87 81 74 73 78 93 87 90
12 17 15 17 17 12 8 15 18 17 22 26 30 31 39 50 58 59 64 64 66 66 64 60 57 53 52 56 61 70 75 78 86 89 94 96 96 90 93 91 99 93 95
21 24 26 28 29 30 33 23 9 9 12 14 13 14 18 23 32 36 42 44 51 54 58 63 61 54 48 48 52 61 67 70 78 82 88 94 97 95 96 98 91 88 86
30 32 30 31 34 38 42 40 40 36 27 14 3 4 13 19 22 26 31 37 41 49 54 58 62 61 55 52 50 57 66 74 77 81 83 90 93 95 98 97 98 91 69
35 33 34 35 36 37 39 37 37 38 36 32 30 24 18 12 7 10 16 23 31 40 44 48 57 62 64 57 49 56 65 68 75 85 87 90 91 92 96 99 97 99 95
35 34 37 36 34 30 27 29 29 29 32 32 29 25 23 19 14 14 17 22 27 30 35 40 48 53 56 59 62 60 66 75 76 77 80 84 87 97 98 97 97 95 93
30 33 34 30 26 25 21 20 23 23 26 25 23 23 22 22 23 24 25 29 33 34 38 41 42 44 47 51 58 67 58 67 76 82 96 84 81 88 91 93 98 97 93
32 32 26 23 20 16 15 14 16 21 23 24 25 26 27 29 33 37 40 42 45 46 47 47 49 51 51 53 53 60 62 67 72 82 83 90 91 98 99 98 98 96 96
27 22 17 14 11 11 13 16 19 24 28 32 37 41 42 43 45 49 54 59 61 62 60 59 59 60 61 62 61 60 61 67 73 79 85 97 93 96 102 103 101 99 102
22 14 8 6 13 16 21 24 26 33 39 43 47 51 56 60 63 67 72 77 79 80 80 76 70 69 68 67 65 65 69 71 73 76 81 96 101 106 98 103 105 103 105
12 6 7 12 18 25 29 33 38 42 49 51 57 61 66 71 78 84 89 95 98 97 94 91 88 83 78 73 73 69 72 76 80 84 87 91 95 107 105 107 109 98 105
5 4 11 19 24 30 37 43 46 51 56 62 65 71 77 83 89 94 97 97 97 99 99 97 95 96 95 91 84 78 78 83 87 90 92 95 100 104 104 115 111 107 94
3 9 17 22 28 34 40 42 45 49 53 59 66 72 78 82 83 84 87 90 92 94 97 98 99 104 105 104 104 105 96 90 94 96 100 101 101 102 107 110 112 117 106
4 11 18 24 27 32 37 42 45 49 52 56 58 61 66 72 75 78 82 86 90 94 98 102 106 109 112 112 114 112 112 114 107 102 103 107 109 111 102 101 111 119 114
7 11 18 22 28 33 37 38 43 47 50 53 57 59 63 67 72 74 77 78 80 86 89 95 99 107 115 119 122 114 114 120 119 120 111 106 109 111 108 101 105 113 129
8 13 17 21 27 31 36 39 43 48 53 56 59 60 62 66 68 73 74 78 82 87 91 97 101 104 108 117 123 117 108 106 113 117 122 113 107 106 107 103 100 119 119
12 15 19 22 30 36 38 42 47 52 55 58 62 65 67 70 75 81 83 84 85 90 97 102 114 113 108 103 107 111 84 81 91 106 111 114 106 99 100 97 104 100 109
14 18 22 25 29 37 43 48 51 56 61 64 68 73 76 77 79 84 87 90 88 91 96 96 105 121 118 117 108 110 99 80 87 91 98 97 99 100 101 107 102 97 95
15 19 22 27 33 38 44 50 56 61 65 70 73 77 82 83 83 85 87 89 90 91 93 91 99 112 124 124 117 108 99 92 92 89 82 85 92 98 104 102 101 105 100
17 24 30 35 40 44 48 54 61 67 72 74 76 80 84 86 88 86 88 88 84 77 84 89 90 99 119 125 99 103 111 116 114 113 119 112 112 103 99 98 98 102 105
23 29 36 42 47 52 56 61 65 71 76 80 79 81 85 86 88 92 100 89 86 83 77 78 74 96 91 109 114 112 97 97 100 123 120 112 102 98 95 90 89 97 106
Wind_Direction_500mb
279 277 274 273 269 269 277 279 274 265 255 252 249 248 252 255 256 258 261 261 261 263 264 264 265 265 267 269 270 272 271 270 273 278 277 276 276 274 274 275 274 271 269
270 269 270 272 271 275 278 271 268 268 259 253 253 254 256 259 262 264 264 264 263 263 263 264 267 266 266 268 268 269 273 273 272 270 280 292 289 285 280 274 271 267 262
267 270 271 272 274 276 270 271 258 262 265 260 253 253 253 256 259 263 264 263 263 264 264 266 266 268 267 268 271 269 269 272 275 270 263 270 278 291 294 280 275 273 272
262 268 276 280 282 282 269 262 253 251 258 263 254 255 256 259 265 270 277 276 272 269 269 271 272 272 272 271 273 274 271 270 269 271 266 263 263 271 288 285 284 273 279
278 285 285 289 281 289 275 256 247 242 251 259 261 256 257 264 268 272 276 277 284 281 279 277 276 277 277 278 275 275 274 272 271 269 270 271 268 267 262 276 282 282 280
281 281 290 311 296 288 278 253 241 242 242 259 268 267 264 265 267 273 279 285 288 288 290 291 287 286 284 285 285 282 279 277 273 271 269 268 264 265 264 266 275 279 283
141 135 107 77 64 29 316 245 231 224 240 256 271 281 282 281 281 284 286 290 292 293 295 293 292 290 291 290 290 288 285 283 279 276 272 270 268 268 268 267 271 274 279
143 116 93 78 71 76 71 78 121 195 216 226 240 269 285 286 292 297 297 301 302 304 304 302 297 291 293 295 298 296 291 288 283 281 277 275 273 271 269 268 266 267 271
128 110 95 83 74 78 78 81 84 87 88 93 138 230 254 265 265 271 283 291 292 295 298 298 299 301 299 297 296 294 298 293 290 286 283 279 277 274 271 268 266 260 260
124 109 97 92 91 89 88 87 84 84 83 83 77 72 69 54 14 312 301 296 290 286 283 286 291 294 298 294 291 289 289 288 291 290 285 283 281 279 275 272 269 264 259
120 102 105 107 103 101 93 84 79 75 72 68 67 63 57 46 29 8 349 335 330 321 312 300 287 286 290 293 291 281 284 290 290 287 285 287 288 282 279 275 272 264 261
114 115 116 110 98 85 79 71 59 54 49 44 39 35 30 23 13 5 353 340 330 324 317 309 304 301 295 288 285 286 286 288 286 288 282 283 284 285 281 278 273 267 262
121 118 114 102 90 74 59 41 22 18 14 9 5 358 354 352 352 349 346 342 335 328 322 314 307 302 297 292 287 283 286 284 287 287 281 283 283 279 276 273 269 268 265
127 115 106 86 70 37 11 358 351 347 346 345 345 343 339 337 335 333 331 329 328 326 322 316 312 306 301 297 295 293 287 281 279 277 277 278 275 274 275 270 270 268 258
128 117 95 34 3 348 346 342 342 337 338 337 334 331 327 326 324 323 322 319 318 315 315 312 307 305 302 298 296 294 292 288 283 279 276 273 274 273 271 270 269 266 261
124 84 19 353 341 339 335 335 337 336 334 330 327 325 322 321 320 319 318 317 315 313 310 309 307 302 299 298 296 296 292 288 285 282 277 274 275 274 275 272 270 269 264
126 7 342 339 334 332 333 336 337 333 330 329 327 326 323 321 320 318 316 314 313 311 310 309 307 303 300 299 297 296 294 290 285 283 281 279 277 277 278 275 270 268 265
58 351 341 338 337 335 337 339 336 334 332 329 328 326 324 322 321 320 319 318 317 315 312 309 307 303 299 299 299 299 296 288 285 283 280 279 277 274 271 269 271 268 264
0 341 338 335 334 336 337 336 335 335 336 334 333 331 329 328 328 327 326 325 322 319 316 313 310 307 301 301 301 302 299 294 288 283 280 279 278 276 274 268 265 267 267
344 347 344 343 344 345 346 345 345 345 344 345 344 342 338 335 333 331 330 327 323 319 317 313 311 308 304 301 303 304 301 295 292 288 283 278 276 276 276 269 262 262 262
11 10 2 2 358 356 355 353 350 349 347 346 344 342 341 337 336 333 335 332 329 327 325 321 318 314 311 304 306 307 304 298 295 290 285 281 278 277 276 274 261 259 261
26 19 13 12 3 357 353 350 346 344 342 341 340 340 339 340 340 338 339 337 334 330 328 325 322 320 317 311 304 302 299 293 286 286 286 286 284 280 275 272 267 263 258
27 16 10 6 359 355 351 346 343 340 338 337 337 336 337 338 339 337 338 335 335 332 329 325 321 320 319 314 310 307 303 294 289 285 283 286 285 284 275 268 264 264 256
14 8 2 356 351 349 346 340 337 334 334 333 334 334 332 333 335 335 336 334 333 330 325 321 317 318 316 315 314 310 305 298 290 288 293 292 288 284 280 275 266 257 253
4 359 354 350 346 342 340 336 333 330 330 330 331 330 329 330 329 330 332 331 329 324 320 317 312 308 313 311 305 301 300 295 291 291 289 286 281 278 275 272 267 258 255
357 351 347 341 337 334 333 329 327 325 325 324 326 325 324 325 327 327 325 328 329 326 318 315 310 314 301 307 308 308 304 295 289 288 280 277 274 271 268 266 263 260 255
Wind_Speed_850mb
61 52 48 50 48 47 49 54 54 58 65 71 72 72 67 64 65 65 62 60 59 59 60 60 57 52 55 57 56 57 60 61 56 59 65 64 63 62 59 54 52 49 49
56 59 57 50 51 53 60 62 60 53 60 70 73 72 72 65 63 64 65 64 64 64 63 65 66 61 59 61 61 59 65 65 61 60 65 65 66 61 48 45 42 35 31
53 49 46 49 55 65 63 62 64 58 51 58 70 75 77 75 67 66 67 65 65 68 69 69 69 68 67 69 69 65 65 70 69 66 59 27 22 32 33 30 35 38 41
52 51 53 55 52 54 56 60 60 59 53 52 63 72 77 74 65 61 54 59 63 65 67 70 73 74 76 75 76 74 72 70 75 77 76 76 79 65 56 41 31 35 48
35 36 31 33 40 39 47 48 51 56 51 53 52 63 72 70 72 72 69 62 56 55 57 59 63 69 74 77 82 85 82 80 80 82 82 81 80 81 85 83 79 68 59
14 8 2 7 17 27 31 30 34 39 45 46 47 53 63 67 72 71 71 70 64 59 52 52 56 59 65 70 74 80 86 86 88 88 88 87 81 74 73 78 93 87 90
12 17 15 17 17 12 8 15 18 17 22 26 30 31 39 50 58 59 64 64 66 66 64 60 57 53 52 56 61 70 75 78 86 89 94 96 96 90 93 91 99 93 95
21 24 26 28 29 30 33 23 9 9 12 14 13 14 18 23 32 36 42 44 51 54 58 63 61 54 48 48 52 61 67 70 78 82 88 94 97 95 96 98 91 88 86
30 32 30 31 34 38 42 40 40 36 27 14 3 4 13 19 22 26 31 37 41 49 54 58 62 61 55 52 50 57 66 74 77 81 83 90 93 95 98 97 98 91 69
35 33 34 35 36 37 39 37 37 38 36 32 30 24 18 12 7 10 16 23 31 40 44 48 57 62 64 57 49 56 65 68 75 85 87 90 91 92 96 99 97 99 95
35 34 37 36 34 30 27 29 29 29 32 32 29 25 23 19 14 14 17 22 27 30 35 40 48 53 56 59 62 60 66 75 76 77 80 84 87 97 98 97 97 95 93
30 33 34 30 26 25 21 20 23 23 26 25 23 23 22 22 23 24 25 29 33 34 38 41 42 44 47 51 58 67 58 67 76 82 96 84 81 88 91 93 98 97 93
32 32 26 23 20 16 15 14 16 21 23 24 25 26 27 29 33 37 40 42 45 46 47 47 49 51 51 53 53 60 62 67 72 82 83 90 91 98 99 98 98 96 96
27 22 17 14 11 11 13 16 19 24 28 32 37 41 42 43 45 49 54 59 61 62 60 59 59 60 61 62 61 60 61 67 73 79 85 97 93 96 102 103 101 99 102
22 14 8 6 13 16 21 24 26 33 39 43 47 51 56 60 63 67 72 77 79 80 80 76 70 69 68 67 65 65 69 71 73 76 81 96 101 106 98 103 105 103 105
12 6 7 12 18 25 29 33 38 42 49 51 57 61 66 71 78 84 89 95 98 97 94 91 88 83 78 73 73 69 72 76 80 84 87 91 95 107 105 107 109 98 105
5 4 11 19 24 30 37 43 46 51 56 62 65 71 77 83 89 94 97 97 97 99 99 97 95 96 95 91 84 78 78 83 87 90 92 95 100 104 104 115 111 107 94
3 9 17 22 28 34 40 42 45 49 53 59 66 72 78 82 83 84 87 90 92 94 97 98 99 104 105 104 104 105 96 90 94 96 100 101 101 102 107 110 112 117 106
4 11 18 24 27 32 37 42 45 49 52 56 58 61 66 72 75 78 82 86 90 94 98 102 106 109 112 112 114 112 112 114 107 102 103 107 109 111 102 101 111 119 114
7 11 18 22 28 33 37 38 43 47 50 53 57 59 63 67 72 74 77 78 80 86 89 95 99 107 115 119 122 114 114 120 119 120 111 106 109 111 108 101 105 113 129
8 13 17 21 27 31 36 39 43 48 53 56 59 60 62 66 68 73 74 78 82 87 91 97 101 104 108 117 123 117 108 106 113 117 122 113 107 106 107 103 100 119 119
12 15 19 22 30 36 38 42 47 52 55 58 62 65 67 70 75 81 83 84 85 90 97 102 114 113 108 103 107 111 84 81 91 106 111 114 106 99 100 97 104 100 109
14 18 22 25 29 37 43 48 51 56 61 64 68 73 76 77 79 84 87 90 88 91 96 96 105 121 118 117 108 110 99 80 87 91 98 97 99 100 101 107 102 97 95
15 19 22 27 33 38 44 50 56 61 65 70 73 77 82 83 83 85 87 89 90 91 93 91 99 112 124 124 117 108 99 92 92 89 82 85 92 98 104 102 101 105 100
17 24 30 35 40 44 48 54 61 67 72 74 76 80 84 86 88 86 88 88 84 77 84 89 90 99 119 125 99 103 111 116 114 113 119 112 112 103 99 98 98 102 105
23 29 36 42 47 52 56 61 65 71 76 80 79 81 85 86 88 92 100 89 86 83 77 78 74 96 91 109 114 112 97 97 100 123 120 112 102 98 95 90 89 97 106
Wind_Direction_850mb
279 277 274 273 269 269 277 279 274 265 255 252 249 248 252 255 256 258 261 261 261 263 264 264 265 265 267 269 270 272 271 270 273 278 277 276 276 274 274 275 274 271 269
270 269 270 272 271 275 278 271 268 268 259 253 253 254 256 259 262 264 264 264 263 263 263 264 267 266 266 268 268 269 273 273 272 270 280 292 289 285 280 274 271 267 262
267 270 271 272 274 276 270 271 258 262 265 260 253 253 253 256 259 263 264 263 263 264 264 266 266 268 267 268 271 269 269 272 275 270 263 270 278 291 294 280 275 273 272
262 268 276 280 282 282 269 262 253 251 258 263 254 255 256 259 265 270 277 276 272 269 269 271 272 272 272 271 273 274 271 270 269 271 266 263 263 271 288 285 284 273 279
278 285 285 289 281 289 275 256 247 242 251 259 261 256 257 264 268 272 276 277 284 281 279 277 276 277 277 278 275 275 274 272 271 269 270 271 268 267 262 276 282 282 280
281 281 290 311 296 288 278 253 241 242 242 259 268 267 264 265 267 273 279 285 288 288 290 291 287 286 284 285 285 282 279 277 273 271 269 268 264 265 264 266 275 279 283
141 135 107 77 64 29 316 245 231 224 240 256 271 281 282 281 281 284 286 290 292 293 295 293 292 290 291 290 290 288 285 283 279 276 272 270 268 268 268 267 271 274 279
143 116 93 78 71 76 71 78 121 195 216 226 240 269 285 286 292 297 297 301 302 304 304 302 297 291 293 295 298 296 291 288 283 281 277 275 273 271 269 268 266 267 271
128 110 95 83 74 78 78 81 84 87 88 93 138 230 254 265 265 271 283 291 292 295 298 298 299 301 299 297 296 294 298 293 290 286 283 279 277 274 271 268 266 260 260
124 109 97 92 91 89 88 87 84 84 83 83 77 72 69 54 14 312 301 296 290 286 283 286 291 294 298 294 291 289 289 288 291 290 285 283 281 279 275 272 269 264 259
120 102 105 107 103 101 93 84 79 75 72 68 67 63 57 46 29 8 349 335 330 321 312 300 287 286 290 293 291 281 284 290 290 287 285 287 288 282 279 275 272 264 261
114 115 116 110 98 85 79 71 59 54 49 44 39 35 30 23 13 5 353 340 330 324 317 309 304 301 295 288 285 286 286 288 286 288 282 283 284 285 281 278 273 267 262
121 118 114 102 90 74 59 41 22 18 14 9 5 358 354 352 352 349 346 342 335 328 322 314 307 302 297 292 287 283 286 284 287 287 281 283 283 279 276 273 269 268 265
127 115 106 86 70 37 11 358 351 347 346 345 345 343 339 337 335 333 331 329 328 326 322 316 312 306 301 297 295 293 287 281 279 277 277 278 275 274 275 270 270 268 258
128 117 95 34 3 348 346 342 342 337 338 337 334 331 327 326 324 323 322 319 318 315 315 312 307 305 302 298 296 294 292 288 283 279 276 273 274 273 271 270 269 266 261
124 84 19 353 341 339 335 335 337 336 334 330 327 325 322 321 320 319 318 317 315 313 310 309 307 302 299 298 296 296 292 288 285 282 277 274 275 274 275 272 270 269 264
126 7 342 339 334 332 333 336 337 333 330 329 327 326 323 321 320 318 316 314 313 311 310 309 307 303 300 299 297 296 294 290 285 283 281 279 277 277 278 275 270 268 265
58 351 341 338 337 335 337 339 336 334 332 329 328 326 324 322 321 320 319 318 317 315 312 309 307 303 299 299 299 299 296 288 285 283 280 279 277 274 271 269 271 268 264
0 341 338 335 334 336 337 336 335 335 336 334 333 331 329 328 328 327 326 325 322 319 316 313 310 307 301 301 301 302 299 294 288 283 280 279 278 276 274 268 265 267 267
344 347 344 343 344 345 346 345 345 345 344 345 344 342 338 335 333 331 330 327 323 319 317 313 311 308 304 301 303 304 301 295 292 288 283 278 276 276 276 269 262 262 262
11 10 2 2 358 356 355 353 350 349 347 346 344 342 341 337 336 333 335 332 329 327 325 321 318 314 311 304 306 307 304 298 295 290 285 281 278 277 276 274 261 259 261
26 19 13 12 3 357 353 350 346 344 342 341 340 340 339 340 340 338 339 337 334 330 328 325 322 320 317 311 304 302 299 293 286 286 286 286 284 280 275 272 267 263 258
27 16 10 6 359 355 351 346 343 340 338 337 337 336 337 338 339 337 338 335 335 332 329 325 321 320 319 314 310 307 303 294 289 285 283 286 285 284 275 268 264 264 256
14 8 2 356 351 349 346 340 337 334 334 333 334 334 332 333 335 335 336 334 333 330 325 321 317 318 316 315 314 310 305 298 290 288 293 292 288 284 280 275 266 257 253
4 359 354 350 346 342 340 336 333 330 330 330 331 330 329 330 329 330 332 331 329 324 320 317 312 308 313 311 305 301 300 295 291 291 289 286 281 278 275 272 267 258 255
357 351 347 341 337 334 333 329 327 325 325 324 326 325 324 325 327 327 325 328 329 326 318 315 310 314 301 307 308 308 304 295 289 288 280 277 274 271 268 266 263 260 255